#timestamp,LO_Frequency,Hit,StdDev 
1701291615.3,286047002.4,N
1701291635.1,286047000.1,N
1701291636.0,286047000.1,N
1701291655.8,286047002.1,N
1701291675.7,286047001.5,N
1701291695.5,286047001.8,N
1701291715.4,286047002.8,N
1701291735.2,286047002.0,N
1701291755.0,286047002.0,N
1701291755.9,286047002.0,N
1701291775.8,286047002.1,N
1701291795.6,286047000.9,N
1701291815.4,286046998.5,N
1701291835.3,286047001.1,N
1701291855.1,286047000.1,N
1701291875.9,286047000.6,N
1701291895.7,286047000.2,N
1701291915.5,286047002.3,N
1701291935.4,286047002.0,N
1701291955.2,286047002.1,N
1701291975.0,286047002.7,N
1701291975.9,286047002.7,N
1701291995.8,286047002.4,N
1701292015.6,286046999.7,N
1701292035.5,286047000.3,N
1701292055.3,286047000.6,N
1701292075.1,286047001.0,N
1701292095.9,286047000.0,N
1701292115.7,286047002.8,N
1701292135.6,286046999.8,N
1701292155.4,286047002.4,N
1701292175.2,286047002.4,N
1701292195.1,286047000.4,N
1701292196.0,286047000.4,N
1701292215.8,286046998.6,N
1701292235.6,286046999.2,N
1701292255.5,286046997.3,N
1701292275.3,286046999.5,N
1701292295.2,286046998.7,N
1701292315.9,286046998.9,N
1701292335.7,286047001.2,N
1701292355.6,286046998.1,N
1701292375.4,286047001.2,N
1701292395.3,286046998.2,N
1701292415.1,286046999.5,N
1701292435.8,286046996.6,N
1701292455.7,286046998.4,N
1701292475.5,286046999.4,N
1701292495.4,286046998.6,N
1701292515.2,286046998.5,N
1701292535.0,286047001.1,N
1701292535.9,286047001.1,N
1701292555.8,286046998.7,N
1701292575.6,286046998.6,N
1701292595.5,286046998.7,N
1701292615.3,286046996.7,N
1701292635.1,286046998.7,N
1701292655.9,286046998.3,N
1701292675.7,286046998.6,N
1701292695.5,286046998.1,N
1701292715.4,286046998.5,N
1701292735.2,286046998.6,N
1701292755.1,286047001.1,N
1701292756.0,286047001.1,N
1701292775.8,286046998.6,N
1701292795.6,286046999.1,N
1701292815.5,286046998.9,N
1701292835.3,286046998.7,N
1701292855.1,286046999.1,N
1701292875.9,286046999.3,N
1701292895.7,286046998.5,N
1701292915.6,286047000.9,N
1701292935.4,286046998.1,N
1701292955.2,286046999.3,N
1701292975.1,286046999.4,N
1701292976.0,286046999.4,N
1701292995.8,286046996.6,Y
1701293015.6,286046998.6,P
1701293035.5,286047000.7,N
1701293055.3,286047000.0,N
1701293075.2,286047000.9,N
1701293095.9,286047001.1,N
1701293115.7,286046998.5,N
1701293135.6,286047000.1,N
1701293155.4,286047002.2,N
1701293175.3,286047002.1,N
1701293195.1,286047000.2,N
1701293196.0,286047000.2,N
1701293215.8,286047002.8,N
1701293235.7,286047002.5,N
1701293255.5,286047002.1,N
1701293275.3,286047002.1,N
1701293295.2,286047002.1,N
1701293315.0,286047002.4,N
1701293315.9,286047002.4,N
1701293335.8,286047002.8,N
1701293355.6,286047002.1,N
1701293375.4,286047003.9,N
1701293395.3,286047002.5,N
1701293415.1,286047002.3,N
1701293435.8,286047000.2,N
1701293455.7,286047002.3,N
1701293475.5,286047002.7,N
1701293495.4,286047002.3,N
1701293515.2,286047002.5,N
1701293535.0,286047001.8,N
1701293535.9,286047001.8,N
1701293555.8,286047004.0,Y
1701293575.6,286047002.1,P
1701293595.4,286047004.3,P
1701293615.3,286047001.3,N
1701293635.1,286047004.4,Y
1701293655.9,286046999.8,P
1701293675.7,286047002.8,N
1701293695.5,286047000.6,N
1701293715.4,286046998.2,N
1701293735.2,286047001.2,N
1701293755.1,286047000.2,N
1701293756.0,286047000.2,N
1701293775.8,286047001.1,N
1701293795.2,286047001.2,N
1701293815.1,286046998.2,N
1701293816.0,286046998.2,N
1701293835.8,286046999.7,N
1701293855.7,286047000.0,N
1701293875.5,286047000.7,N
1701293895.3,286046999.5,N
1701293915.2,286046998.3,N
1701293935.0,286046998.1,N
1701293935.9,286046998.1,N
1701293955.8,286047001.0,N
1701293975.6,286047000.7,N
1701293995.4,286046998.8,N
1701294015.3,286046999.0,N
1701294035.1,286046996.6,N
1701294055.9,286046997.2,N
1701294075.7,286046998.6,N
1701294095.5,286046998.5,N
1701294115.4,286046998.4,N
1701294135.2,286046999.4,N
1701294155.0,286046998.6,N
1701294155.9,286046998.6,N
1701294175.8,286047001.2,N
1701294195.6,286047000.7,N
1701294215.5,286047000.1,N
1701294235.3,286047002.8,N
1701294255.1,286047002.2,N
1701294275.9,286047002.1,N
1701294295.7,286047000.1,N
1701294315.6,286047000.4,N
1701294335.4,286047000.7,N
1701294355.2,286047000.4,N
1701294375.1,286047000.5,N
1701294376.0,286047000.5,N
1701294395.8,286047002.3,N
1701294415.6,286047002.4,N
1701294435.5,286047000.1,N
1701294455.3,286047001.9,N
1701294475.2,286047002.4,N
1701294495.0,286047000.3,N
1701294495.9,286047000.3,N
1701294515.8,286046998.5,N
1701294535.6,286047000.9,N
1701294555.5,286047000.9,N
1701294575.3,286047000.6,N
1701294595.1,286046999.9,N
1701294615.9,286046999.7,N
1701294635.7,286047002.7,N
1701294655.5,286047001.5,N
1701294675.4,286046999.8,N
1701294695.2,286047002.1,N
1701294715.1,286047002.5,N
1701294716.0,286047002.5,N
1701294735.8,286047001.6,N
1701294755.7,286047002.8,N
1701294775.5,286047001.1,N
1701294795.3,286046999.0,N
1701294815.2,286046999.3,N
1701294835.9,286046998.6,N
1701294855.7,286046998.5,N
1701294875.6,286046999.4,N
1701294895.4,286046999.4,N
1701294915.3,286046999.5,N
1701294935.1,286046996.5,N
1701294955.8,286046999.5,N
1701294975.7,286046998.9,N
1701294995.5,286046999.3,N
1701295015.4,286046998.3,N
1701295035.2,286046999.6,N
1701295055.0,286046996.6,N
1701295055.9,286046996.6,N
1701295075.8,286046997.0,N
1701295095.6,286046997.3,N
1701295115.4,286046999.6,N
1701295135.3,286046999.2,N
1701295155.1,286046999.3,N
1701295175.9,286046999.0,N
1701295195.7,286046999.2,N
